Time,TemperatureF,DewpointF,PressureIn,WindDirection,WindDirectionDegrees,WindSpeedMPH,WindSpeedGustMPH,Humidity,HourlyPrecipIn,Conditions,Clouds,dailyrainin,SoftwareType,DateUTC
2013-03-13 00:00:00,54.0,44.1,29.80,NE,54,6.0,16.0,69,0.00,,,0.35,meteohub,2013-03-13 04:00:00,
2013-03-13 00:05:00,54.0,44.1,29.80,WNW,289,7.0,11.0,69,0.00,,,0.00,meteohub,2013-03-13 04:05:00,
2013-03-13 00:06:00,54.0,44.1,29.80,NE,54,8.0,11.0,69,0.00,,,0.00,meteohub,2013-03-13 04:06:00,
2013-03-13 00:11:00,54.0,44.1,29.80,NE,54,5.0,11.0,69,0.00,,,0.00,meteohub,2013-03-13 04:11:00,
2013-03-13 00:16:00,54.0,44.1,29.81,WNW,302,8.0,12.0,69,0.00,,,0.00,meteohub,2013-03-13 04:16:00,
2013-03-13 00:22:00,54.0,44.1,29.81,WNW,296,9.0,12.0,69,0.00,,,0.00,meteohub,2013-03-13 04:22:00,
2013-03-13 00:27:00,54.0,44.1,29.81,NW,306,8.0,13.0,69,0.00,,,0.00,meteohub,2013-03-13 04:27:00,
2013-03-13 00:32:00,53.8,43.9,29.81,NW,314,7.0,16.0,69,0.00,,,0.00,meteohub,2013-03-13 04:32:00,
2013-03-13 00:37:00,53.8,43.9,29.81,NE,54,11.0,16.0,69,0.00,,,0.00,meteohub,2013-03-13 04:37:00,
2013-03-13 00:42:00,53.8,43.9,29.81,NW,318,7.0,16.0,69,0.00,,,0.00,meteohub,2013-03-13 04:42:00,
2013-03-13 00:47:00,53.8,43.9,29.81,NW,307,7.0,16.0,69,0.00,,,0.00,meteohub,2013-03-13 04:47:00,
2013-03-13 00:52:00,53.8,43.9,29.81,NE,54,11.0,17.0,69,0.00,,,0.00,meteohub,2013-03-13 04:52:00,
2013-03-13 00:57:00,53.8,43.9,29.81,WNW,294,13.0,17.0,69,0.00,,,0.00,meteohub,2013-03-13 04:57:00,
2013-03-13 01:02:00,53.6,43.3,29.82,NE,54,5.0,17.0,68,0.00,,,0.00,meteohub,2013-03-13 05:02:00,
2013-03-13 01:07:00,53.6,43.3,29.82,NE,54,7.0,14.0,68,0.00,,,0.00,meteohub,2013-03-13 05:07:00,
2013-03-13 01:12:00,53.6,43.3,29.82,NW,305,6.0,14.0,68,0.00,,,0.00,meteohub,2013-03-13 05:12:00,
2013-03-13 01:17:00,53.6,43.3,29.82,WNW,303,5.0,12.0,68,0.00,,,0.00,meteohub,2013-03-13 05:17:00,
2013-03-13 01:23:00,53.4,43.2,29.81,NW,326,10.0,15.0,68,0.00,,,0.00,meteohub,2013-03-13 05:23:00,
2013-03-13 01:28:00,53.4,43.2,29.81,NW,321,7.0,16.0,68,0.00,,,0.00,meteohub,2013-03-13 05:28:00,
2013-03-13 01:33:00,53.4,43.2,29.81,NW,309,11.0,16.0,68,0.00,,,0.00,meteohub,2013-03-13 05:33:00,
2013-03-13 01:38:00,53.4,43.2,29.81,WNW,301,10.0,16.0,68,0.00,,,0.00,meteohub,2013-03-13 05:38:00,
2013-03-13 01:43:00,53.4,43.2,29.82,WNW,300,9.0,17.0,68,0.00,,,0.00,meteohub,2013-03-13 05:43:00,
2013-03-13 01:48:00,53.2,43.0,29.82,NE,54,7.0,17.0,68,0.00,,,0.00,meteohub,2013-03-13 05:48:00,
2013-03-13 01:53:00,53.2,43.0,29.81,NE,54,9.0,17.0,68,0.00,,,0.00,meteohub,2013-03-13 05:53:00,
2013-03-13 01:58:00,53.2,43.0,29.82,NNW,330,8.0,13.0,68,0.00,,,0.00,meteohub,2013-03-13 05:58:00,
2013-03-13 02:03:00,53.2,43.0,29.82,NW,313,10.0,15.0,68,0.00,,,0.00,meteohub,2013-03-13 06:03:00,
2013-03-13 02:08:00,53.1,42.8,29.82,NW,317,13.0,15.0,68,0.00,,,0.00,meteohub,2013-03-13 06:08:00,
2013-03-13 02:14:00,53.1,42.8,29.82,NW,311,7.0,16.0,68,0.00,,,0.00,meteohub,2013-03-13 06:14:00,
2013-03-13 02:19:00,53.1,42.8,29.82,NW,310,6.0,16.0,68,0.00,,,0.00,meteohub,2013-03-13 06:19:00,
2013-03-13 02:24:00,53.1,42.4,29.82,NW,304,9.0,16.0,67,0.00,,,0.00,meteohub,2013-03-13 06:24:00,
2013-03-13 02:29:00,53.1,42.4,29.82,NE,54,7.0,13.0,67,0.00,,,0.00,meteohub,2013-03-13 06:29:00,
2013-03-13 02:34:00,53.1,42.4,29.82,NE,54,9.0,14.0,67,0.00,,,0.00,meteohub,2013-03-13 06:34:00,
2013-03-13 02:39:00,53.1,42.4,29.82,NNW,333,7.0,15.0,67,0.00,,,0.00,meteohub,2013-03-13 06:39:00,
2013-03-13 02:44:00,53.1,42.4,29.83,NE,54,8.0,15.0,67,0.00,,,0.00,meteohub,2013-03-13 06:44:00,
2013-03-13 02:49:00,52.9,42.3,29.83,NW,306,7.0,15.0,67,0.00,,,0.00,meteohub,2013-03-13 06:49:00,
2013-03-13 02:54:00,52.9,42.3,29.83,NE,54,9.0,13.0,67,0.00,,,0.00,meteohub,2013-03-13 06:54:00,
2013-03-13 03:00:00,52.9,42.3,29.84,NW,306,8.0,15.0,67,0.00,,,0.00,meteohub,2013-03-13 07:00:00,
2013-03-13 03:05:00,52.7,42.1,29.84,WNW,300,8.0,15.0,67,0.00,,,0.00,meteohub,2013-03-13 07:05:00,
2013-03-13 03:10:00,52.7,42.1,29.84,NE,54,13.0,15.0,67,0.00,,,0.00,meteohub,2013-03-13 07:10:00,
2013-03-13 03:15:00,52.7,42.1,29.84,NE,54,7.0,15.0,67,0.00,,,0.00,meteohub,2013-03-13 07:15:00,
2013-03-13 03:20:00,52.7,42.1,29.84,NE,54,8.0,15.0,67,0.00,,,0.00,meteohub,2013-03-13 07:20:00,
2013-03-13 03:25:00,52.5,41.9,29.84,WNW,300,5.0,15.0,67,0.00,,,0.00,meteohub,2013-03-13 07:25:00,
2013-03-13 03:30:00,52.5,41.9,29.84,NW,317,8.0,14.0,67,0.00,,,0.00,meteohub,2013-03-13 07:30:00,
2013-03-13 03:35:00,52.5,41.9,29.84,NW,325,5.0,14.0,67,0.00,,,0.00,meteohub,2013-03-13 07:35:00,
2013-03-13 03:40:00,52.3,41.7,29.84,NW,311,7.0,14.0,67,0.00,,,0.00,meteohub,2013-03-13 07:40:00,
2013-03-13 03:45:00,52.3,41.7,29.84,NW,323,5.0,15.0,67,0.00,,,0.00,meteohub,2013-03-13 07:45:00,
2013-03-13 03:50:00,52.3,41.7,29.84,NW,319,8.0,15.0,67,0.00,,,0.00,meteohub,2013-03-13 07:50:00,
2013-03-13 03:56:00,52.3,41.7,29.84,NE,54,9.0,15.0,67,0.00,,,0.00,meteohub,2013-03-13 07:56:00,
2013-03-13 04:01:00,52.3,41.4,29.84,NE,54,6.0,16.0,66,0.00,,,0.00,meteohub,2013-03-13 08:01:00,
2013-03-13 04:06:00,52.3,41.4,29.84,NW,320,10.0,16.0,66,0.00,,,0.00,meteohub,2013-03-13 08:06:00,
2013-03-13 04:11:00,52.2,41.2,29.84,NW,311,6.0,16.0,66,0.00,,,0.00,meteohub,2013-03-13 08:11:00,
2013-03-13 04:16:00,52.2,41.2,29.84,NE,54,9.0,16.0,66,0.00,,,0.00,meteohub,2013-03-13 08:16:00,
2013-03-13 04:21:00,52.2,41.2,29.84,NW,321,8.0,16.0,66,0.00,,,0.00,meteohub,2013-03-13 08:21:00,
2013-03-13 04:26:00,52.0,41.0,29.85,NW,308,7.0,17.0,66,0.00,,,0.00,meteohub,2013-03-13 08:26:00,
2013-03-13 04:31:00,52.0,41.0,29.85,NW,307,12.0,17.0,66,0.00,,,0.00,meteohub,2013-03-13 08:31:00,
2013-03-13 04:37:00,52.0,41.0,29.85,NW,322,12.0,17.0,66,0.00,,,0.00,meteohub,2013-03-13 08:37:00,
2013-03-13 04:42:00,51.8,40.8,29.85,NW,311,8.0,16.0,66,0.00,,,0.00,meteohub,2013-03-13 08:42:00,
2013-03-13 04:47:00,51.8,40.8,29.85,WNW,302,6.0,16.0,66,0.00,,,0.00,meteohub,2013-03-13 08:47:00,
2013-03-13 04:52:00,51.8,40.8,29.85,NW,323,9.0,16.0,66,0.00,,,0.00,meteohub,2013-03-13 08:52:00,
2013-03-13 04:57:00,51.6,40.6,29.85,NW,317,7.0,16.0,66,0.00,,,0.00,meteohub,2013-03-13 08:57:00,
2013-03-13 05:02:00,51.6,40.6,29.85,NW,312,5.0,14.0,66,0.00,,,0.00,meteohub,2013-03-13 09:02:00,
2013-03-13 05:07:00,51.6,40.6,29.85,WNW,300,8.0,16.0,66,0.00,,,0.00,meteohub,2013-03-13 09:07:00,
2013-03-13 05:12:00,51.4,40.5,29.86,NW,312,10.0,18.0,66,0.00,,,0.00,meteohub,2013-03-13 09:12:00,
2013-03-13 05:17:00,51.4,40.5,29.86,NW,306,8.0,18.0,66,0.00,,,0.00,meteohub,2013-03-13 09:17:00,
2013-03-13 05:23:00,51.4,40.5,29.86,NW,317,6.0,18.0,66,0.00,,,0.00,meteohub,2013-03-13 09:23:00,
2013-03-13 05:28:00,51.4,40.1,29.86,NE,54,10.0,15.0,65,0.00,,,0.00,meteohub,2013-03-13 09:28:00,
2013-03-13 05:33:00,51.4,40.1,29.86,NW,312,10.0,16.0,65,0.00,,,0.00,meteohub,2013-03-13 09:33:00,
2013-03-13 05:38:00,51.3,39.9,29.86,WNW,299,11.0,16.0,65,0.00,,,0.00,meteohub,2013-03-13 09:38:00,
2013-03-13 05:43:00,51.3,39.9,29.86,WNW,292,9.0,16.0,65,0.00,,,0.00,meteohub,2013-03-13 09:43:00,
2013-03-13 05:48:00,51.1,39.7,29.86,NE,54,7.0,16.0,65,0.00,,,0.00,meteohub,2013-03-13 09:48:00,
2013-03-13 05:53:00,51.1,39.7,29.86,NW,323,11.0,15.0,65,0.00,,,0.00,meteohub,2013-03-13 09:53:00,
2013-03-13 05:58:00,51.1,39.7,29.86,NW,312,10.0,15.0,65,0.00,,,0.00,meteohub,2013-03-13 09:58:00,
2013-03-13 06:03:00,50.9,39.6,29.86,WNW,303,8.0,15.0,65,0.00,,,0.00,meteohub,2013-03-13 10:03:00,
2013-03-13 06:09:00,50.9,39.6,29.86,WNW,294,4.0,15.0,65,0.00,,,0.00,meteohub,2013-03-13 10:09:00,
2013-03-13 06:14:00,50.7,39.4,29.86,NE,54,10.0,15.0,65,0.00,,,0.00,meteohub,2013-03-13 10:14:00,
2013-03-13 06:19:00,50.7,39.4,29.86,WNW,286,12.0,15.0,65,0.00,,,0.00,meteohub,2013-03-13 10:19:00,
2013-03-13 06:24:00,50.7,39.4,29.86,WNW,292,13.0,15.0,65,0.00,,,0.00,meteohub,2013-03-13 10:24:00,
2013-03-13 06:29:00,50.5,39.2,29.86,WNW,301,14.0,18.0,65,0.00,,,0.00,meteohub,2013-03-13 10:29:00,
2013-03-13 06:34:00,50.5,39.2,29.86,WNW,300,7.0,18.0,65,0.00,,,0.00,meteohub,2013-03-13 10:34:00,
2013-03-13 06:39:00,50.5,39.2,29.86,WNW,295,7.0,18.0,65,0.00,,,0.00,meteohub,2013-03-13 10:39:00,
2013-03-13 06:44:00,50.5,39.2,29.86,NW,313,14.0,17.0,65,0.00,,,0.00,meteohub,2013-03-13 10:44:00,
2013-03-13 06:49:00,50.5,38.8,29.86,WNW,293,10.0,19.0,64,0.00,,,0.00,meteohub,2013-03-13 10:49:00,
2013-03-13 06:54:00,50.4,38.7,29.86,WNW,296,15.0,19.0,64,0.00,,,0.00,meteohub,2013-03-13 10:54:00,
2013-03-13 07:00:00,50.4,38.7,29.86,WNW,290,10.0,19.0,64,0.00,,,0.00,meteohub,2013-03-13 11:00:00,
2013-03-13 07:05:00,50.2,38.5,29.86,WNW,290,10.0,17.0,64,0.00,,,0.00,meteohub,2013-03-13 11:05:00,
2013-03-13 07:10:00,50.2,38.5,29.86,WNW,284,8.0,17.0,64,0.00,,,0.00,meteohub,2013-03-13 11:10:00,
2013-03-13 07:15:00,50.4,38.7,29.86,WNW,284,8.0,18.0,64,0.00,,,0.00,meteohub,2013-03-13 11:15:00,
2013-03-13 07:20:00,50.5,38.8,29.86,WNW,294,9.0,18.0,64,0.00,,,0.00,meteohub,2013-03-13 11:20:00,
2013-03-13 07:25:00,51.3,39.0,29.86,NW,304,10.0,14.0,63,0.00,,,0.00,meteohub,2013-03-13 11:25:00,
2013-03-13 07:30:00,52.3,39.7,29.86,WNW,295,11.0,14.0,62,0.00,,,0.00,meteohub,2013-03-13 11:30:00,
2013-03-13 07:35:00,53.2,40.1,29.86,WNW,290,11.0,16.0,61,0.00,,,0.00,meteohub,2013-03-13 11:35:00,
2013-03-13 07:40:00,54.7,40.6,29.86,WNW,292,10.0,16.0,59,0.00,,,0.00,meteohub,2013-03-13 11:40:00,
2013-03-13 07:45:00,55.8,41.2,29.86,WNW,289,12.0,17.0,58,0.00,,,0.00,meteohub,2013-03-13 11:45:00,
2013-03-13 07:51:00,56.5,41.0,29.86,WNW,283,8.0,17.0,56,0.00,,,0.00,meteohub,2013-03-13 11:51:00,
2013-03-13 07:56:00,57.6,41.5,29.86,WNW,290,7.0,17.0,55,0.00,,,0.00,meteohub,2013-03-13 11:56:00,
2013-03-13 08:01:00,58.5,41.4,29.87,WNW,292,8.0,13.0,53,0.00,,,0.00,meteohub,2013-03-13 12:01:00,
2013-03-13 08:06:00,59.4,41.7,29.86,WNW,289,10.0,14.0,52,0.00,,,0.00,meteohub,2013-03-13 12:06:00,
2013-03-13 08:11:00,59.4,41.2,29.86,WNW,290,12.0,15.0,51,0.00,,,0.00,meteohub,2013-03-13 12:11:00,
2013-03-13 08:17:00,59.4,41.2,29.86,West,277,10.0,15.0,51,0.00,,,0.00,meteohub,2013-03-13 12:17:00,
2013-03-13 08:22:00,59.2,41.0,29.86,WNW,291,8.0,15.0,51,0.00,,,0.00,meteohub,2013-03-13 12:22:00,
2013-03-13 08:27:00,58.8,40.8,29.86,WNW,282,8.0,16.0,51,0.00,,,0.00,meteohub,2013-03-13 12:27:00,
2013-03-13 08:32:00,58.6,41.0,29.86,WNW,288,9.0,16.0,52,0.00,,,0.00,meteohub,2013-03-13 12:32:00,
2013-03-13 08:37:00,58.3,41.2,29.86,WNW,283,7.0,16.0,53,0.00,,,0.00,meteohub,2013-03-13 12:37:00,
2013-03-13 08:42:00,57.9,40.8,29.86,West,277,7.0,14.0,53,0.00,,,0.00,meteohub,2013-03-13 12:42:00,
2013-03-13 08:47:00,57.6,41.0,29.86,WNW,292,16.0,16.0,54,0.00,,,0.00,meteohub,2013-03-13 12:47:00,
2013-03-13 08:52:00,57.4,41.4,29.86,West,274,9.0,17.0,55,0.00,,,0.00,meteohub,2013-03-13 12:52:00,
2013-03-13 08:57:00,57.0,41.0,29.86,WNW,300,15.0,18.0,55,0.00,,,0.00,meteohub,2013-03-13 12:57:00,
2013-03-13 09:02:00,57.0,41.5,29.86,WNW,283,10.0,18.0,56,0.00,,,0.00,meteohub,2013-03-13 13:02:00,
2013-03-13 09:07:00,56.8,41.4,29.87,WNW,286,11.0,18.0,56,0.00,,,0.00,meteohub,2013-03-13 13:07:00,
2013-03-13 09:12:00,56.7,41.2,29.87,WNW,292,9.0,18.0,56,0.00,,,0.00,meteohub,2013-03-13 13:12:00,
2013-03-13 09:17:00,56.5,41.0,29.87,WNW,296,10.0,15.0,56,0.00,,,0.00,meteohub,2013-03-13 13:17:00,
2013-03-13 09:22:00,56.7,41.5,29.87,WNW,288,13.0,17.0,57,0.00,,,0.00,meteohub,2013-03-13 13:22:00,
2013-03-13 09:27:00,56.7,41.5,29.87,WNW,282,10.0,17.0,57,0.00,,,0.00,meteohub,2013-03-13 13:27:00,
2013-03-13 09:32:00,56.7,41.5,29.87,West,279,13.0,18.0,57,0.00,,,0.00,meteohub,2013-03-13 13:32:00,
2013-03-13 09:37:00,56.5,41.4,29.87,West,267,15.0,18.0,57,0.00,,,0.00,meteohub,2013-03-13 13:37:00,
2013-03-13 09:43:00,56.5,41.4,29.87,WNW,292,12.0,18.0,57,0.00,,,0.00,meteohub,2013-03-13 13:43:00,
2013-03-13 09:48:00,56.5,41.4,29.86,West,270,7.0,17.0,57,0.00,,,0.00,meteohub,2013-03-13 13:48:00,
2013-03-13 09:53:00,56.5,41.4,29.86,West,269,10.0,17.0,57,0.00,,,0.00,meteohub,2013-03-13 13:53:00,
2013-03-13 09:58:00,56.5,41.4,29.86,WNW,285,12.0,17.0,57,0.00,,,0.00,meteohub,2013-03-13 13:58:00,
2013-03-13 10:03:00,56.3,41.2,29.86,West,271,14.0,19.0,57,0.00,,,0.00,meteohub,2013-03-13 14:03:00,
2013-03-13 10:08:00,56.3,41.2,29.86,West,277,6.0,19.0,57,0.00,,,0.00,meteohub,2013-03-13 14:08:00,
2013-03-13 10:13:00,56.3,41.7,29.86,WNW,296,9.0,16.0,58,0.00,,,0.00,meteohub,2013-03-13 14:13:00,
2013-03-13 10:18:00,56.3,41.7,29.86,WNW,288,8.0,15.0,58,0.00,,,0.00,meteohub,2013-03-13 14:18:00,
2013-03-13 10:24:00,56.3,41.7,29.86,WNW,291,9.0,15.0,58,0.00,,,0.00,meteohub,2013-03-13 14:24:00,
2013-03-13 10:29:00,56.3,41.7,29.85,WNW,288,7.0,15.0,58,0.00,,,0.00,meteohub,2013-03-13 14:29:00,
2013-03-13 10:34:00,56.3,41.7,29.85,WNW,291,7.0,16.0,58,0.00,,,0.00,meteohub,2013-03-13 14:34:00,
2013-03-13 10:39:00,56.3,41.7,29.85,West,281,9.0,16.0,58,0.00,,,0.00,meteohub,2013-03-13 14:39:00,
2013-03-13 10:44:00,56.3,41.7,29.85,WNW,296,10.0,16.0,58,0.00,,,0.00,meteohub,2013-03-13 14:44:00,
2013-03-13 10:49:00,56.3,41.7,29.85,WNW,288,12.0,18.0,58,0.00,,,0.00,meteohub,2013-03-13 14:49:00,
2013-03-13 10:54:00,56.3,41.7,29.85,WNW,292,12.0,18.0,58,0.00,,,0.00,meteohub,2013-03-13 14:54:00,
2013-03-13 10:59:00,56.5,41.9,29.85,WNW,286,10.0,18.0,58,0.00,,,0.00,meteohub,2013-03-13 14:59:00,
2013-03-13 11:04:00,56.5,41.9,29.85,West,281,6.0,17.0,58,0.00,,,0.00,meteohub,2013-03-13 15:04:00,
2013-03-13 11:09:00,56.5,41.9,29.85,NW,312,15.0,17.0,58,0.00,,,0.00,meteohub,2013-03-13 15:09:00,
2013-03-13 11:14:00,56.5,42.3,29.85,WNW,296,10.0,18.0,59,0.00,,,0.00,meteohub,2013-03-13 15:14:00,
2013-03-13 11:19:00,56.5,42.3,29.85,West,276,14.0,18.0,59,0.00,,,0.00,meteohub,2013-03-13 15:19:00,
2013-03-13 11:24:00,56.7,42.4,29.85,NW,309,9.0,18.0,59,0.00,,,0.00,meteohub,2013-03-13 15:24:00,
2013-03-13 11:30:00,56.7,42.4,29.85,NW,317,8.0,18.0,59,0.00,,,0.00,meteohub,2013-03-13 15:30:00,
2013-03-13 11:35:00,56.7,42.4,29.85,WNW,290,10.0,18.0,59,0.00,,,0.00,meteohub,2013-03-13 15:35:00,
2013-03-13 11:40:00,56.8,42.6,29.85,WNW,300,13.0,18.0,59,0.00,,,0.00,meteohub,2013-03-13 15:40:00,
2013-03-13 11:45:00,56.8,42.6,29.85,WNW,290,9.0,16.0,59,0.00,,,0.00,meteohub,2013-03-13 15:45:00,
2013-03-13 11:50:00,56.8,42.6,29.84,NW,311,14.0,16.0,59,0.00,,,0.00,meteohub,2013-03-13 15:50:00,
2013-03-13 11:55:00,57.0,42.8,29.84,WNW,302,8.0,19.0,59,0.00,,,0.00,meteohub,2013-03-13 15:55:00,
2013-03-13 12:01:00,57.0,42.8,29.85,WNW,299,12.0,19.0,59,0.00,,,0.00,meteohub,2013-03-13 16:01:00,
2013-03-13 12:06:00,57.0,42.8,29.84,WNW,283,11.0,19.0,59,0.00,,,0.00,meteohub,2013-03-13 16:06:00,
2013-03-13 12:11:00,57.0,42.8,29.84,NW,304,11.0,18.0,59,0.00,,,0.00,meteohub,2013-03-13 16:11:00,
2013-03-13 12:16:00,57.0,42.8,29.84,NW,306,10.0,18.0,59,0.00,,,0.00,meteohub,2013-03-13 16:16:00,
2013-03-13 12:21:00,57.0,42.8,29.84,NW,304,9.0,18.0,59,0.00,,,0.00,meteohub,2013-03-13 16:21:00,
2013-03-13 12:26:00,57.4,43.2,29.84,West,281,7.0,18.0,59,0.00,,,0.00,meteohub,2013-03-13 16:26:00,
2013-03-13 12:32:00,57.4,43.2,29.84,WNW,293,11.0,17.0,59,0.00,,,0.00,meteohub,2013-03-13 16:32:00,
2013-03-13 12:37:00,57.4,43.2,29.84,WNW,288,11.0,18.0,59,0.00,,,0.00,meteohub,2013-03-13 16:37:00,
2013-03-13 12:42:00,57.4,43.2,29.84,WNW,293,9.0,18.0,59,0.00,,,0.00,meteohub,2013-03-13 16:42:00,
2013-03-13 12:47:00,57.4,43.2,29.84,West,263,9.0,16.0,59,0.00,,,0.00,meteohub,2013-03-13 16:47:00,
2013-03-13 12:52:00,57.6,43.3,29.84,West,269,17.0,17.0,59,0.00,,,0.00,meteohub,2013-03-13 16:52:00,
2013-03-13 12:57:00,57.6,43.3,29.84,West,281,10.0,18.0,59,0.00,,,0.00,meteohub,2013-03-13 16:57:00,
2013-03-13 13:02:00,57.6,43.3,29.83,WNW,290,18.0,18.0,59,0.00,,,0.00,meteohub,2013-03-13 17:02:00,
2013-03-13 13:07:00,57.6,43.3,29.83,West,264,14.0,18.0,59,0.00,,,0.00,meteohub,2013-03-13 17:07:00,
2013-03-13 13:12:00,57.7,43.5,29.83,West,277,12.0,20.0,59,0.00,,,0.00,meteohub,2013-03-13 17:12:00,
2013-03-13 13:17:00,57.7,43.5,29.83,WNW,286,13.0,20.0,59,0.00,,,0.00,meteohub,2013-03-13 17:17:00,
2013-03-13 13:22:00,57.9,43.7,29.83,WNW,290,11.0,20.0,59,0.00,,,0.00,meteohub,2013-03-13 17:22:00,
2013-03-13 13:27:00,57.9,43.7,29.83,West,264,12.0,19.0,59,0.00,,,0.00,meteohub,2013-03-13 17:27:00,
2013-03-13 13:32:00,58.1,43.9,29.82,West,265,17.0,20.0,59,0.00,,,0.00,meteohub,2013-03-13 17:32:00,
2013-03-13 13:37:00,58.1,43.9,29.82,West,271,15.0,21.0,59,0.00,,,0.00,meteohub,2013-03-13 17:37:00,
2013-03-13 13:42:00,58.3,44.1,29.82,WSW,256,18.0,24.0,59,0.00,,,0.00,meteohub,2013-03-13 17:42:00,
2013-03-13 13:47:00,58.3,44.1,29.81,West,261,17.0,24.0,59,0.00,,,0.00,meteohub,2013-03-13 17:47:00,
2013-03-13 13:52:00,58.5,44.2,29.81,West,272,16.0,24.0,59,0.00,,,0.00,meteohub,2013-03-13 17:52:00,
2013-03-13 13:58:00,58.5,44.2,29.81,West,280,15.0,23.0,59,0.00,,,0.00,meteohub,2013-03-13 17:58:00,
2013-03-13 14:03:00,58.5,44.6,29.81,WSW,248,17.0,22.0,60,0.00,,,0.00,meteohub,2013-03-13 18:03:00,
2013-03-13 14:08:00,58.5,44.6,29.81,WSW,245,17.0,22.0,60,0.00,,,0.00,meteohub,2013-03-13 18:08:00,
2013-03-13 14:13:00,58.6,44.4,29.81,WSW,253,18.0,22.0,59,0.00,,,0.00,meteohub,2013-03-13 18:13:00,
2013-03-13 14:18:00,58.6,44.4,29.81,West,260,15.0,25.0,59,0.00,,,0.00,meteohub,2013-03-13 18:18:00,
2013-03-13 14:23:00,58.8,45.0,29.81,WNW,294,11.0,25.0,60,0.00,,,0.00,meteohub,2013-03-13 18:23:00,
2013-03-13 14:28:00,58.8,44.6,29.80,West,276,15.0,25.0,59,0.00,,,0.00,meteohub,2013-03-13 18:28:00,
2013-03-13 14:33:00,59.0,44.8,29.80,WSW,250,11.0,23.0,59,0.00,,,0.00,meteohub,2013-03-13 18:33:00,
2013-03-13 14:38:00,59.2,44.8,29.80,WSW,246,12.0,22.0,59,0.00,,,0.00,meteohub,2013-03-13 18:38:00,
2013-03-13 14:44:00,59.2,44.8,29.80,WSW,258,13.0,23.0,59,0.00,,,0.00,meteohub,2013-03-13 18:44:00,
2013-03-13 14:49:00,59.4,45.0,29.80,WSW,240,15.0,23.0,59,0.00,,,0.00,meteohub,2013-03-13 18:49:00,
2013-03-13 14:54:00,59.4,45.0,29.80,WSW,246,15.0,25.0,59,0.00,,,0.00,meteohub,2013-03-13 18:54:00,
2013-03-13 14:59:00,59.4,45.0,29.80,WSW,254,15.0,25.0,59,0.00,,,0.00,meteohub,2013-03-13 18:59:00,
2013-03-13 15:04:00,59.5,45.1,29.79,West,262,18.0,25.0,59,0.00,,,0.00,meteohub,2013-03-13 19:04:00,
2013-03-13 15:09:00,59.5,45.1,29.79,WSW,242,17.0,24.0,59,0.00,,,0.00,meteohub,2013-03-13 19:09:00,
2013-03-13 15:14:00,59.7,45.3,29.79,WSW,252,19.0,25.0,59,0.00,,,0.00,meteohub,2013-03-13 19:14:00,
2013-03-13 15:19:00,59.7,45.3,29.79,SW,234,15.0,25.0,59,0.00,,,0.00,meteohub,2013-03-13 19:19:00,
2013-03-13 15:24:00,59.9,45.5,29.79,WSW,258,19.0,25.0,59,0.00,,,0.00,meteohub,2013-03-13 19:24:00,
2013-03-13 15:29:00,60.1,45.7,29.79,WSW,250,12.0,24.0,59,0.00,,,0.00,meteohub,2013-03-13 19:29:00,
2013-03-13 15:34:00,60.3,45.9,29.79,SW,223,16.0,22.0,59,0.00,,,0.00,meteohub,2013-03-13 19:34:00,
2013-03-13 15:39:00,60.3,45.9,29.79,WSW,239,17.0,22.0,59,0.00,,,0.00,meteohub,2013-03-13 19:39:00,
2013-03-13 15:45:00,60.3,45.5,29.79,SW,232,15.0,23.0,58,0.00,,,0.00,meteohub,2013-03-13 19:45:00,
2013-03-13 15:50:00,60.4,45.7,29.79,West,259,13.0,23.0,58,0.00,,,0.00,meteohub,2013-03-13 19:50:00,
2013-03-13 15:55:00,60.6,45.7,29.79,WSW,254,17.0,25.0,58,0.00,,,0.00,meteohub,2013-03-13 19:55:00,
2013-03-13 16:00:00,60.6,45.7,29.79,SW,234,14.0,25.0,58,0.00,,,0.00,meteohub,2013-03-13 20:00:00,
2013-03-13 16:05:00,60.8,45.9,29.79,West,264,17.0,26.0,58,0.00,,,0.00,meteohub,2013-03-13 20:05:00,
2013-03-13 16:10:00,61.0,46.0,29.79,SW,235,15.0,26.0,58,0.00,,,0.00,meteohub,2013-03-13 20:10:00,
2013-03-13 16:15:00,61.0,45.7,29.79,WSW,245,10.0,26.0,57,0.00,,,0.00,meteohub,2013-03-13 20:15:00,
2013-03-13 16:20:00,61.2,45.9,29.79,WSW,258,13.0,25.0,57,0.00,,,0.00,meteohub,2013-03-13 20:20:00,
2013-03-13 16:25:00,61.3,46.0,29.79,SW,230,7.0,24.0,57,0.00,,,0.00,meteohub,2013-03-13 20:25:00,
2013-03-13 16:31:00,61.3,46.0,29.79,West,261,7.0,23.0,57,0.00,,,0.00,meteohub,2013-03-13 20:31:00,
2013-03-13 16:36:00,61.3,46.0,29.79,West,265,7.0,21.0,57,0.00,,,0.00,meteohub,2013-03-13 20:36:00,
2013-03-13 16:41:00,61.5,46.2,29.79,West,264,19.0,20.0,57,0.00,,,0.00,meteohub,2013-03-13 20:41:00,
2013-03-13 16:46:00,61.5,45.7,29.79,West,261,13.0,27.0,56,0.00,,,0.00,meteohub,2013-03-13 20:46:00,
2013-03-13 16:52:00,61.5,45.1,29.79,West,272,9.0,27.0,55,0.00,,,0.00,meteohub,2013-03-13 20:52:00,
2013-03-13 16:57:00,61.9,45.5,29.79,West,259,17.0,27.0,55,0.00,,,0.00,meteohub,2013-03-13 20:57:00,
2013-03-13 17:02:00,61.9,45.1,29.79,WSW,254,7.0,25.0,54,0.00,,,0.00,meteohub,2013-03-13 21:02:00,
2013-03-13 17:07:00,61.9,45.5,29.79,West,278,12.0,23.0,55,0.00,,,0.00,meteohub,2013-03-13 21:07:00,
2013-03-13 17:12:00,61.9,45.1,29.79,WSW,256,11.0,23.0,54,0.00,,,0.00,meteohub,2013-03-13 21:12:00,
2013-03-13 17:17:00,61.9,45.1,29.79,WNW,284,16.0,23.0,54,0.00,,,0.00,meteohub,2013-03-13 21:17:00,
2013-03-13 17:22:00,61.9,44.6,29.80,West,273,17.0,23.0,53,0.00,,,0.00,meteohub,2013-03-13 21:22:00,
2013-03-13 17:27:00,61.9,44.6,29.79,WSW,256,11.0,22.0,53,0.00,,,0.00,meteohub,2013-03-13 21:27:00,
2013-03-13 17:32:00,61.9,44.1,29.79,WSW,250,18.0,22.0,52,0.00,,,0.00,meteohub,2013-03-13 21:32:00,
2013-03-13 17:37:00,61.9,44.6,29.79,West,260,13.0,22.0,53,0.00,,,0.00,meteohub,2013-03-13 21:37:00,
2013-03-13 17:42:00,61.9,45.1,29.79,WSW,254,10.0,20.0,54,0.00,,,0.00,meteohub,2013-03-13 21:42:00,
2013-03-13 17:48:00,61.9,45.1,29.79,West,260,13.0,20.0,54,0.00,,,0.00,meteohub,2013-03-13 21:48:00,
2013-03-13 17:53:00,61.9,45.1,29.79,WSW,247,9.0,21.0,54,0.00,,,0.00,meteohub,2013-03-13 21:53:00,
2013-03-13 17:58:00,62.1,45.7,29.79,WSW,244,10.0,21.0,55,0.00,,,0.00,meteohub,2013-03-13 21:58:00,
2013-03-13 18:03:00,62.1,45.7,29.79,West,261,12.0,17.0,55,0.00,,,0.00,meteohub,2013-03-13 22:03:00,
2013-03-13 18:08:00,61.9,45.5,29.79,WSW,256,8.0,19.0,55,0.00,,,0.00,meteohub,2013-03-13 22:08:00,
2013-03-13 18:13:00,61.9,45.5,29.79,WSW,253,7.0,19.0,55,0.00,,,0.00,meteohub,2013-03-13 22:13:00,
2013-03-13 18:18:00,61.9,45.5,29.80,West,266,12.0,15.0,55,0.00,,,0.00,meteohub,2013-03-13 22:18:00,
2013-03-13 18:23:00,61.9,45.5,29.80,West,259,11.0,15.0,55,0.00,,,0.00,meteohub,2013-03-13 22:23:00,
2013-03-13 18:28:00,61.9,45.5,29.80,WSW,257,12.0,15.0,55,0.00,,,0.00,meteohub,2013-03-13 22:28:00,
2013-03-13 18:34:00,61.9,46.0,29.80,WSW,254,7.0,15.0,56,0.00,,,0.00,meteohub,2013-03-13 22:34:00,
2013-03-13 18:39:00,61.5,45.7,29.80,WSW,254,6.0,15.0,56,0.00,,,0.00,meteohub,2013-03-13 22:39:00,
2013-03-13 18:44:00,61.5,45.7,29.81,WSW,246,7.0,14.0,56,0.00,,,0.00,meteohub,2013-03-13 22:44:00,
2013-03-13 18:49:00,61.3,45.5,29.81,WSW,240,5.0,14.0,56,0.00,,,0.00,meteohub,2013-03-13 22:49:00,
2013-03-13 18:54:00,61.3,45.5,29.81,WSW,248,7.0,14.0,56,0.00,,,0.00,meteohub,2013-03-13 22:54:00,
2013-03-13 18:59:00,61.3,45.5,29.81,WSW,250,5.0,14.0,56,0.00,,,0.00,meteohub,2013-03-13 22:59:00,
2013-03-13 19:04:00,61.3,45.0,29.81,WSW,240,11.0,13.0,55,0.00,,,0.00,meteohub,2013-03-13 23:04:00,
2013-03-13 19:09:00,61.2,44.8,29.81,WSW,258,6.0,13.0,55,0.00,,,0.00,meteohub,2013-03-13 23:09:00,
2013-03-13 19:15:00,61.2,44.8,29.81,WSW,246,5.0,13.0,55,0.00,,,0.00,meteohub,2013-03-13 23:15:00,
2013-03-13 19:20:00,61.0,44.8,29.81,WSW,254,4.0,13.0,55,0.00,,,0.00,meteohub,2013-03-13 23:20:00,
2013-03-13 19:25:00,60.8,44.6,29.82,WSW,242,5.0,13.0,55,0.00,,,0.00,meteohub,2013-03-13 23:25:00,
2013-03-13 19:30:00,60.8,44.6,29.82,WSW,247,8.0,11.0,55,0.00,,,0.00,meteohub,2013-03-13 23:30:00,
2013-03-13 19:35:00,60.6,44.4,29.82,WSW,238,7.0,11.0,55,0.00,,,0.00,meteohub,2013-03-13 23:35:00,
2013-03-13 19:40:00,60.4,44.2,29.82,WSW,254,5.0,11.0,55,0.00,,,0.00,meteohub,2013-03-13 23:40:00,
2013-03-13 19:45:00,60.4,43.7,29.82,WSW,254,6.0,12.0,54,0.00,,,0.00,meteohub,2013-03-13 23:45:00,
2013-03-13 19:50:00,60.3,43.5,29.82,SSW,209,10.0,12.0,54,0.00,,,0.00,meteohub,2013-03-13 23:50:00,
2013-03-13 19:55:00,60.3,43.5,29.82,West,261,10.0,14.0,54,0.00,,,0.00,meteohub,2013-03-13 23:55:00,
2013-03-13 20:00:00,60.1,43.3,29.82,WSW,252,8.0,18.0,54,0.00,,,0.00,meteohub,2013-03-14 00:00:00,
2013-03-13 20:06:00,60.1,43.0,29.82,West,260,9.0,18.0,53,0.00,,,0.00,meteohub,2013-03-14 00:06:00,
2013-03-13 20:11:00,59.9,42.8,29.82,WSW,255,10.0,18.0,53,0.00,,,0.00,meteohub,2013-03-14 00:11:00,
2013-03-13 20:16:00,59.7,42.6,29.82,West,268,5.0,13.0,53,0.00,,,0.00,meteohub,2013-03-14 00:16:00,
2013-03-13 20:21:00,59.7,42.6,29.82,West,261,4.0,13.0,53,0.00,,,0.00,meteohub,2013-03-14 00:21:00,
2013-03-13 20:26:00,59.5,42.4,29.83,West,262,7.0,11.0,53,0.00,,,0.00,meteohub,2013-03-14 00:26:00,
2013-03-13 20:31:00,59.5,42.4,29.83,WSW,253,6.0,12.0,53,0.00,,,0.00,meteohub,2013-03-14 00:31:00,
2013-03-13 20:36:00,59.4,42.3,29.83,West,265,4.0,12.0,53,0.00,,,0.00,meteohub,2013-03-14 00:36:00,
2013-03-13 20:41:00,59.4,42.3,29.83,West,261,5.0,12.0,53,0.00,,,0.00,meteohub,2013-03-14 00:41:00,
2013-03-13 20:46:00,59.4,42.3,29.83,West,265,5.0,10.0,53,0.00,,,0.00,meteohub,2013-03-14 00:46:00,
2013-03-13 20:51:00,59.2,42.1,29.83,West,269,3.0,10.0,53,0.00,,,0.00,meteohub,2013-03-14 00:51:00,
2013-03-13 20:57:00,59.2,42.1,29.83,West,268,2.0,10.0,53,0.00,,,0.00,meteohub,2013-03-14 00:57:00,
2013-03-13 21:02:00,59.0,41.9,29.83,West,260,7.0,8.0,53,0.00,,,0.00,meteohub,2013-03-14 01:02:00,
2013-03-13 21:07:00,59.0,41.9,29.84,West,261,5.0,8.0,53,0.00,,,0.00,meteohub,2013-03-14 01:07:00,
2013-03-13 21:12:00,58.8,41.7,29.83,West,276,4.0,7.0,53,0.00,,,0.00,meteohub,2013-03-14 01:12:00,
2013-03-13 21:17:00,58.6,41.5,29.83,West,274,4.0,10.0,53,0.00,,,0.00,meteohub,2013-03-14 01:17:00,
2013-03-13 21:22:00,58.6,41.5,29.84,West,269,4.0,10.0,53,0.00,,,0.00,meteohub,2013-03-14 01:22:00,
2013-03-13 21:27:00,58.5,41.4,29.84,WSW,252,5.0,9.0,53,0.00,,,0.00,meteohub,2013-03-14 01:27:00,
2013-03-13 21:32:00,58.5,41.4,29.84,WSW,257,6.0,9.0,53,0.00,,,0.00,meteohub,2013-03-14 01:32:00,
2013-03-13 21:37:00,58.5,40.8,29.84,WSW,252,6.0,11.0,52,0.00,,,0.00,meteohub,2013-03-14 01:37:00,
2013-03-13 21:42:00,58.3,40.8,29.84,WSW,257,4.0,11.0,52,0.00,,,0.00,meteohub,2013-03-14 01:42:00,
2013-03-13 21:48:00,58.3,40.8,29.84,WSW,258,4.0,11.0,52,0.00,,,0.00,meteohub,2013-03-14 01:48:00,
2013-03-13 21:53:00,58.1,41.0,29.84,West,259,4.0,8.0,53,0.00,,,0.00,meteohub,2013-03-14 01:53:00,
2013-03-13 21:58:00,58.1,40.6,29.85,West,273,6.0,8.0,52,0.00,,,0.00,meteohub,2013-03-14 01:58:00,
2013-03-13 22:03:00,57.9,40.5,29.85,West,276,5.0,9.0,52,0.00,,,0.00,meteohub,2013-03-14 02:03:00,
2013-03-13 22:08:00,57.7,40.3,29.85,West,271,4.0,9.0,52,0.00,,,0.00,meteohub,2013-03-14 02:08:00,
2013-03-13 22:13:00,57.7,40.3,29.85,West,259,7.0,9.0,52,0.00,,,0.00,meteohub,2013-03-14 02:13:00,
2013-03-13 22:18:00,57.6,40.1,29.85,West,265,5.0,9.0,52,0.00,,,0.00,meteohub,2013-03-14 02:18:00,
2013-03-13 22:23:00,57.4,39.9,29.85,West,271,8.0,9.0,52,0.00,,,0.00,meteohub,2013-03-14 02:23:00,
2013-03-13 22:28:00,57.4,39.9,29.85,West,263,5.0,9.0,52,0.00,,,0.00,meteohub,2013-03-14 02:28:00,
2013-03-13 22:33:00,57.4,39.9,29.85,West,269,5.0,9.0,52,0.00,,,0.00,meteohub,2013-03-14 02:33:00,
2013-03-13 22:38:00,57.0,39.6,29.85,West,281,6.0,9.0,52,0.00,,,0.00,meteohub,2013-03-14 02:38:00,
2013-03-13 22:44:00,57.0,39.6,29.85,WNW,286,7.0,11.0,52,0.00,,,0.00,meteohub,2013-03-14 02:44:00,
2013-03-13 22:49:00,57.0,39.6,29.84,West,273,8.0,13.0,52,0.00,,,0.00,meteohub,2013-03-14 02:49:00,
2013-03-13 22:54:00,56.8,39.4,29.84,West,269,8.0,13.0,52,0.00,,,0.00,meteohub,2013-03-14 02:54:00,
2013-03-13 22:59:00,56.8,39.4,29.84,West,276,5.0,13.0,52,0.00,,,0.00,meteohub,2013-03-14 02:59:00,
2013-03-13 23:04:00,56.7,39.2,29.84,West,269,8.0,13.0,52,0.00,,,0.00,meteohub,2013-03-14 03:04:00,
2013-03-13 23:09:00,56.5,39.0,29.84,West,269,6.0,13.0,52,0.00,,,0.00,meteohub,2013-03-14 03:09:00,
2013-03-13 23:14:00,56.5,39.0,29.84,West,269,5.0,13.0,52,0.00,,,0.00,meteohub,2013-03-14 03:14:00,
2013-03-13 23:19:00,56.5,39.0,29.84,West,261,7.0,13.0,52,0.00,,,0.00,meteohub,2013-03-14 03:19:00,
2013-03-13 23:24:00,56.3,38.8,29.84,West,266,8.0,13.0,52,0.00,,,0.00,meteohub,2013-03-14 03:24:00,
2013-03-13 23:29:00,56.3,38.8,29.84,West,277,10.0,15.0,52,0.00,,,0.00,meteohub,2013-03-14 03:29:00,
2013-03-13 23:35:00,56.1,38.7,29.84,West,266,7.0,15.0,52,0.00,,,0.00,meteohub,2013-03-14 03:35:00,
2013-03-13 23:40:00,55.9,38.5,29.84,West,267,7.0,15.0,52,0.00,,,0.00,meteohub,2013-03-14 03:40:00,
2013-03-13 23:45:00,55.8,38.5,29.84,West,270,10.0,15.0,52,0.00,,,0.00,meteohub,2013-03-14 03:45:00,
2013-03-13 23:50:00,55.8,38.5,29.84,West,265,9.0,14.0,52,0.00,,,0.00,meteohub,2013-03-14 03:50:00,
2013-03-13 23:55:00,55.8,38.5,29.85,West,277,10.0,14.0,52,0.00,,,0.00,meteohub,2013-03-14 03:55:00,